Location: Bonnesvalyn
(49.1218°N, 3.3177°E)
Time: 14:11:48
(UTC+00:00)

MINOTAUR 4 R/B - Pass Details

Date: 09 February 2023
Orbit: 448 x 453 km, 98.0° (Epoch: 22 March)

Event Time Altitude Azimuth Distance (km) Brightness Sun altitude
Exits shadow 18:35:29 21° 27° (NNE) 1,085 5.5 -16.6°
Maximum altitude 18:37:36 59° 102° (ESE) 528 3.9 -16.9°
Drops below altitude 10° 18:40:56 10° 183° (S) 1,575 6.7 -17.5°
Sets 18:42:58 0° 187° (S) 2,443 7.7 -17.8°
